Flag for U.S.A. Weather past 2 weeks in Augusta, Maine, U.S.A.

Now
50 °F

Passing clouds.


Feels Like: 47 °F
Forecast: 47 / 77 °F
Wind: 8 mph from Southwest

Location: Augusta State Airport

Current Time: May 24, 2015 at 5:55:19 AM

Latest Report: May 24, 2015 at 4:53 AM


Visibility: 10 mi

Pressure: 30.12 "Hg

Humidity: 46%

Dew point: 30 °F

Location of AugustaLocation

Historic Weather in Augusta — Graph

°F

Augusta temperature yesterday

Maximum temperature yesterday: 59 °F (at 4:53 PM)
Minimum temperature yesterday: 37 °F (at 3:53 AM)
Average temperature yesterday: 48 °F

Past Weeks' High & Low Weather Summary

 TemperatureHumidityPressure
High84 °F (May 10, 1:53 PM)100% (May 10, 3:53 AM)30.36 "Hg (May 10, 3:53 AM)
Low37 °F (May 23, 3:53 AM)18% (May 14, 4:53 PM)29.59 "Hg (May 12, 6:53 PM)
Average56 °F63%30.04 "Hg
* Reported May 9 4:53 AM — May 24 4:53 AM, Augusta, Weather by CustomWeather, © 2015

Note: Actual official high and low records may vary slightly from our data, if they occured in-between our weather recording intervals... More about our weather records

Advertising

Augusta weather history for previous 24 hours

 ConditionsComfort  
Time TempWeatherWind HumidityBarometerVisibility
4:53 AM
Sun, May 24
50 °FPassing clouds.8 mph46%30.12 "Hg10 mi
3:53 AM49 °FMostly cloudy.12 mph48%30.13 "Hg10 mi
2:53 AM42 °FClear.5 mph65%30.14 "Hg10 mi
1:53 AM45 °FClear.5 mph51%30.16 "Hg10 mi
12:53 AM45 °FPassing clouds.6 mph49%30.17 "Hg10 mi
11:53 PM
Sat, May 23
46 °FClear.7 mph46%30.19 "Hg10 mi
10:53 PM47 °FClear.6 mph44%30.19 "Hg10 mi
9:53 PM50 °FClear.5 mph39%30.20 "Hg10 mi
8:53 PM52 °FSunny.5 mph34%30.20 "Hg10 mi
7:53 PM56 °FSunny.6 mph27%30.19 "Hg10 mi
6:53 PM58 °FSunny.5 mph24%30.18 "Hg10 mi
5:53 PM59 °FSunny.9 mph22%30.18 "Hg10 mi
4:53 PM59 °FSunny.17 mph22%30.19 "Hg10 mi
3:53 PM58 °FSunny.15 mph21%30.19 "Hg10 mi
2:53 PM57 °FSunny.12 mph23%30.20 "Hg10 mi
1:53 PM55 °FSunny.14 mph24%30.20 "Hg10 mi
12:53 PM52 °FSunny.18 mph25%30.21 "Hg10 mi
11:53 AM51 °FSunny.13 mph28%30.20 "Hg10 mi
10:53 AM49 °FSunny.21 mph29%30.20 "Hg10 mi
9:53 AM48 °FPassing clouds.16 mph32%30.19 "Hg10 mi
8:53 AM44 °FPassing clouds.22 mph34%30.18 "Hg10 mi
7:53 AM42 °FSunny.15 mph41%30.16 "Hg10 mi
6:53 AM40 °FSunny.12 mph49%30.15 "Hg10 mi
5:53 AM37 °FClear.9 mph52%30.13 "Hg10 mi
Weather by CustomWeather, © 2015

See weather overviewHow to use our weather pages